This is the latest recevied weather packets stored in our database for station/object CRYC. If no packets are shown the sender has not sent any weather packets the latest 10 day(s).
| Time | Temp. | Humidity | Pressure | Rain* | Wind** | Luminosity | Snow |
|---|---|---|---|---|---|---|---|
| 1777752388 | 16.11° C | - | - | 0 mm | 0.89 m/s, 300° | - | - |
| 1777751179 | 16.11° C | - | - | 0 mm | 1.79 m/s, 28° | - | - |
| 1777750576 | 16.67° C | - | - | 0 mm | 0.45 m/s, 63° | - | - |
| 1777749972 | 16.67° C | - | - | 0 mm | 1.79 m/s, 23° | - | - |
| 1777749369 | 17.78° C | - | - | 0 mm | 2.24 m/s, 13° | - | - |
| 1777748766 | 17.22° C | - | - | 0 mm | 1.34 m/s, 44° | - | - |
| 1777748163 | 17.22° C | - | - | 0 mm | 1.79 m/s, 39° | - | - |
| 1777747560 | 17.78° C | - | - | 0 mm | 0.89 m/s, 7° | - | - |
| 1777746949 | 16.67° C | - | - | 0 mm | 0.89 m/s, 17° | - | - |
| 1777746345 | 17.22° C | - | - | 0 mm | 2.24 m/s, 30° | - | - |
| 1777745742 | 16.67° C | - | - | 0 mm | 1.79 m/s, 73° | - | - |
| 1777745138 | 17.22° C | - | - | 0 mm | 0.89 m/s, 23° | - | - |
| 1777744534 | 16.11° C | - | - | 0 mm | 0.89 m/s, 89° | - | - |
| 1777742719 | 16.67° C | - | - | 0 mm | 0.45 m/s, 82° | - | - |
| 1777742114 | 16.67° C | - | - | 0 mm | 0.45 m/s, 13° | - | - |
| 1777741508 | 15.56° C | - | - | 0 mm | 2.24 m/s, 359° | - | - |
| 1777740910 | 14.44° C | - | - | 0 mm | 3.13 m/s, 18° | - | - |
| 1777740302 | 15° C | - | - | 0 mm | 1.79 m/s, 335° | - | - |
| 1777739694 | 15° C | - | - | 0 mm | 2.24 m/s, 44° | - | - |
| 1777739091 | 15° C | - | - | 0 mm | 2.24 m/s, 359° | - | - |
| 1777738493 | 15.56° C | - | - | 0 mm | 0.45 m/s, 42° | - | - |
| 1777737879 | 15.56° C | - | - | 0 mm | 1.34 m/s, 359° | - | - |
| 1777737276 | 14.44° C | - | - | 0 mm | 3.58 m/s, 37° | - | - |
| 1777736068 | 13.89° C | - | - | 0 mm | 0.89 m/s, 330° | - | - |
| 1777735462 | 13.33° C | - | - | 0 mm | 0.45 m/s, 44° | - | - |
* Rain latest hour (hover to see other rain measurements)
** Current wind speed in m/s (hover to see current wind gust speed)